SCP
0 0 0 0 0 0 0 0 0 0 0 0 0 0 0 0 0 0 0 0 0 0 0 0 0 0 0 0 0 0 0 0 0 0 0 0 0 0
0 0 0 0 0 0 0 0 0 0 0 0 0 0 0 0 0 0 0 0 0 0 0 0 0 0 0 0 0 0 0 0 0 0 0 0 0 0
0 0 0 0 0 0 0 0 0 0 0 0 0 0 0 0 0 0 0 0 0 0 0 0 0 0 0 0 0 0 0 0 0 0 0 0 0 0
0 0 0 0 0 0 0 0 0 0 0 0 0 0 0 0 0 0 0 0 0 0 0 0 0 0 0 0 0 0 0 0 0 0 0 0 0 0
0 0 0 0 0 0 0 0 0 0 0 0 0 0 0 0 0 0 0 0 0 0 0 0 0 0 0 0 0 0 0 0 0 0 0 0 0 0
0 0 0 0 0 0 0 0 0 0 0 0 0 0 0 0 0 0 0 0 0 0 0 0 0 0 0 0 0 0 0 0 0 0 0 0 0 0
0 0 0 0 0 0 0 0 0 0 0 0 0 0 0 0 0 0 0 0 0 0 0 0 0 0 0 0 0 0 0 0 0 0 0 0 0 0
0 0 0 0 0 0 0 0 0 0 0 0 0 0 0 0 0 0 0 0 0 0 0 0 0 0 0 0 0 0 0 0 0 0 0 0 0 0
0 0 0 0 0 0 0 0 0 0 0 0 0 0 0 0 0 0 0 0 0 0 0 0 0 0 0 0 0 0 0 0 0 0 0 0 0 0
0 0 0 0 0 0 0 0 0 0 0 0 0 0 0 0 0 0 0 0 0 0 0 0 0 0 0 0 0 0 0 0 0 0 0 0 0 0
0 0 0 0 0 0 0 0 0 0 0 0 0 0 0 0 0 0 0 0 0 0 0 0 0 0 0 0 0 0 0 0 0 0 0 0 0 0
0 0 0 0 0 0 0 0 0 0 0 0 0 0 0 0 0 0 0 0 0 0 0 0 0 0 0 0 0 0 0 0 0 0 0 0 0 0
0 0 0 0 0 0 0 0 0 0 0 0 0 0 0 0 0 0 0 0 0 0 0 0 0 0 0 0 0 0 0 0 0 0 0 0 0 0
0 0 0 0 0 0 0 0 0 0 0 0 0 0 0 0 0 0 0 0 0 0 0 0 0 0 0 0 0 0 0 0 0 0 0 0 0 0
0 0 0 0 0 0 0 0 0 0 0 0 0 0 0 0 0 0 0 0 0 0 0 0 0 0 0 0 0 0 0 0 0 0 0 0 0 0
0 0 0 0 0 0 0 0 0 0 0 0 0 0 0 0 0 0 0 0 0 0 0 0 0 0 0 0 0 0 0 0 0 0 0 0 0 0
0 0 0 0 0 0 0 0 0 0 0 0 0 0 0 0 0 0 0 0 0 0 0 0 0 0 0 0 0 0 0 0 0 0 0 0 0 0
0 0 0 0 0 0 0 0 0 0 0 0 0 0 0 0 0 0 0 0 0 0 0 0 0 0 0 0 0 0 0 0 0 0 0 0 0 0
0 0 0 0 0 0 0 0 0 0 0 0 0 0 0 0 0 0 0 0 0 0 0 0 0 0 0 0 0 0 0 0 0 0 0 0 0 0
0 0 0 0 0 0 0 0 0 0 0 0 0 0 0 0 0 0 0 0 0 0 0 0 0 0 0 0 0 0 0 0 0 0 0 0 0 0
0 0 0 0 0 0 0 0 0 0 0 0 0 0 0 0 0 0 0 0 0 0 0 0 0 0 0 0 0 0 0 0 0 0 0 0 0 0
0 0 0 0 0 0 0 0 0 0 0 0 0 0 0 0 0 0 0 0 0 0 0 0 0 0 0 0 0 0 0 0 0 0 0 0 0 0
0 0 0 0 0 0 0 0 0 0 0 0 0 0 0 0 0 0 0 0 0 0 0 0 0 0 0 0 0 0 0 0 0 0 0 0 0 0
Wind_Speed_500mb
59 59 62 61 62 64 66 66 69 62 61 60 61 60 49 46 41 46 56 57 62 58 58 52 59 60 56 59 55 58 53 54 53 50 49 51 52 52
59 57 56 54 56 58 56 54 58 66 67 66 63 54 55 47 42 43 48 53 58 61 55 53 61 57 58 59 56 57 57 58 57 54 57 59 58 59
56 56 54 53 59 60 54 55 54 58 59 57 49 48 47 41 43 44 45 48 53 55 53 57 56 59 62 61 61 59 61 58 59 62 66 65 65 64
54 57 58 53 58 52 55 55 48 43 46 44 49 45 38 37 35 42 42 42 45 48 55 56 56 61 64 65 67 63 61 57 59 65 67 69 69 67
53 52 53 51 52 54 46 48 49 44 44 48 43 39 34 32 33 36 37 36 44 49 47 54 57 62 67 68 70 66 63 62 62 65 67 70 71 68
52 51 51 49 49 49 48 43 43 34 31 34 37 37 30 31 33 33 32 37 44 44 45 51 58 65 68 68 69 69 64 62 64 68 71 73 72 71
49 48 52 49 46 40 36 30 28 29 35 36 30 25 28 28 29 31 35 36 41 46 53 53 58 61 66 68 69 67 65 63 65 67 68 74 74 73
49 52 49 46 41 37 34 31 33 30 23 21 23 24 24 25 30 33 32 39 47 45 41 43 48 47 53 65 65 67 65 57 60 64 63 73 75 69
39 36 29 26 27 24 23 16 19 20 24 24 23 21 23 24 30 32 35 38 45 49 56 61 59 60 57 59 58 54 54 54 57 60 61 71 71 67
27 25 20 17 15 15 18 21 25 30 27 23 20 20 24 27 28 33 39 43 47 48 49 63 56 61 58 57 57 59 56 56 51 56 59 64 65 66
24 21 19 18 18 20 24 30 28 25 23 23 21 19 21 24 31 36 40 42 45 42 49 56 54 56 59 59 54 50 52 58 60 59 57 60 64 65
21 17 17 18 17 20 19 23 24 25 21 19 20 21 23 27 31 33 36 39 39 40 36 48 55 58 42 45 32 44 58 68 68 65 61 61 67 68
24 16 12 12 15 19 20 24 22 21 18 18 19 22 23 26 31 34 35 38 38 44 49 47 47 55 51 61 63 65 70 63 63 64 64 58 67 69
25 16 14 16 20 20 22 21 21 20 19 20 20 20 24 28 32 34 37 40 39 43 41 40 52 53 59 66 71 69 67 73 69 68 66 64 63 64
25 20 19 19 20 18 18 18 20 21 20 20 21 22 25 28 31 33 33 34 36 38 37 37 43 44 45 54 61 62 58 63 64 60 68 63 61 62
25 25 22 18 19 19 20 20 21 19 19 18 19 19 21 24 26 30 34 36 41 42 42 39 38 39 46 46 50 56 62 56 63 59 61 59 56 55
22 22 21 19 16 12 11 10 9 8 9 10 13 16 20 23 26 28 31 36 38 42 42 40 40 42 47 48 54 53 52 54 53 51 56 57 56 54
25 22 20 17 14 12 10 7 8 10 12 13 16 19 23 27 29 29 29 29 31 32 37 38 40 47 48 48 44 46 49 44 46 52 55 54 54 49
26 23 18 16 13 10 7 9 11 12 14 17 21 24 26 27 29 30 29 29 30 31 33 41 38 37 43 50 41 37 45 54 55 52 49 52 51 52
23 18 16 15 12 10 10 12 15 18 21 25 28 30 32 34 35 37 37 38 39 39 39 36 34 34 35 44 58 56 48 48 46 47 48 46 49 45
23 20 17 15 13 11 13 17 20 23 25 28 30 32 34 36 36 38 39 40 42 42 45 41 38 46 51 51 52 45 37 44 41 45 45 45 43 43
22 18 15 13 13 16 18 22 25 27 30 31 33 34 34 37 39 39 39 40 41 43 44 44 41 40 37 35 40 41 41 43 40 38 32 28 29 21
18 16 15 17 20 23 26 27 29 30 31 32 33 35 35 36 37 38 38 39 40 41 40 42 40 35 33 31 37 39 40 40 38 35 29 31 30 28
Wind_Direction_500mb
267 268 270 275 277 279 279 283 286 278 284 289 295 302 306 298 294 286 280 269 262 257 251 250 256 256 256 259 263 271 279 282 287 284 287 292 296 301
266 268 272 276 280 282 284 283 280 280 272 285 294 300 299 290 286 283 276 267 263 253 253 254 260 263 262 262 265 273 276 280 285 282 285 289 294 300
267 270 274 275 276 279 277 278 278 275 277 284 295 295 285 287 277 275 274 270 265 257 260 262 264 261 262 264 265 270 274 280 285 287 288 291 293 297
265 266 267 273 272 276 279 280 277 277 278 287 295 285 288 283 283 283 283 274 266 265 266 265 262 260 260 259 260 265 271 278 285 289 289 290 291 295
261 262 264 268 275 280 276 279 282 281 280 282 283 289 289 292 291 291 289 281 278 278 268 267 268 265 263 261 262 266 271 276 290 290 290 289 290 294
263 262 267 273 272 276 277 281 280 277 284 289 287 287 297 300 299 296 289 288 287 281 277 276 276 271 266 262 264 267 274 276 287 290 291 291 292 292
256 260 263 265 267 265 273 270 263 269 283 276 276 286 292 294 290 287 286 287 289 289 287 283 282 278 273 271 269 268 274 280 286 290 292 292 291 291
248 254 262 266 264 262 261 262 269 272 255 261 266 267 272 280 286 288 289 298 298 299 291 289 290 289 284 277 276 276 277 283 293 293 292 292 290 292
256 260 262 262 255 265 265 249 255 258 258 256 249 256 272 284 285 287 292 292 295 293 299 296 295 293 293 286 282 287 277 288 297 297 294 290 293 296
238 248 255 255 259 261 249 241 236 238 242 240 247 260 274 286 292 292 295 298 296 296 296 295 301 300 298 294 284 285 280 290 300 301 293 292 298 296
218 228 235 234 235 242 247 242 240 242 242 246 255 273 278 278 283 291 294 298 303 304 305 301 307 307 303 299 295 289 284 289 303 305 297 297 295 290
211 223 207 222 226 242 246 248 246 243 247 252 267 271 271 278 286 291 296 297 298 308 301 304 304 309 312 303 295 294 287 291 297 302 299 295 289 290
204 207 208 208 225 234 240 244 244 244 242 244 255 268 276 283 290 295 297 295 294 291 303 302 300 302 295 298 304 310 308 309 305 305 301 295 272 286
203 204 219 227 237 240 234 238 247 251 250 256 264 272 283 293 298 302 305 304 301 302 305 300 296 301 299 301 301 308 310 311 312 311 307 303 298 293
202 200 208 224 234 238 243 246 246 256 266 274 281 288 297 303 308 310 311 314 312 312 314 308 304 311 307 306 309 313 313 310 310 310 314 312 308 303
193 194 193 204 222 231 236 243 253 258 263 276 290 301 304 310 316 316 313 313 312 314 317 319 316 313 310 305 307 307 313 308 315 317 316 315 312 307
182 179 178 184 196 200 209 218 238 263 281 292 299 307 308 306 306 307 309 311 312 315 317 318 315 310 308 309 310 314 314 313 316 317 317 317 317 317
178 180 175 172 176 180 187 213 247 270 287 299 308 310 310 310 311 311 307 308 308 311 314 312 311 315 316 316 318 316 314 314 317 317 318 316 318 318
181 179 171 172 182 192 215 241 256 275 294 306 313 318 320 318 319 319 318 315 309 309 305 307 310 312 316 314 318 316 314 317 315 314 316 313 313 315
180 184 182 186 193 207 228 257 280 296 304 310 311 310 307 308 309 308 307 305 305 303 298 300 303 302 304 302 298 297 306 307 309 308 310 307 313 312
187 191 194 201 211 232 258 274 283 290 295 297 298 301 304 307 308 306 306 306 306 305 301 297 289 293 298 298 298 304 303 301 306 308 311 309 310 317
197 201 207 223 245 260 268 275 282 288 292 295 298 301 304 305 304 304 305 307 307 304 300 299 305 308 304 298 295 301 306 305 310 308 305 293 303 306
207 219 236 252 259 264 268 273 279 284 288 292 296 299 300 301 302 304 306 306 305 304 305 310 312 307 301 301 300 304 305 309 314 315 302 300 302 305
Wind_Speed_850mb
59 59 62 61 62 64 66 66 69 62 61 60 61 60 49 46 41 46 56 57 62 58 58 52 59 60 56 59 55 58 53 54 53 50 49 51 52 52
59 57 56 54 56 58 56 54 58 66 67 66 63 54 55 47 42 43 48 53 58 61 55 53 61 57 58 59 56 57 57 58 57 54 57 59 58 59
56 56 54 53 59 60 54 55 54 58 59 57 49 48 47 41 43 44 45 48 53 55 53 57 56 59 62 61 61 59 61 58 59 62 66 65 65 64
54 57 58 53 58 52 55 55 48 43 46 44 49 45 38 37 35 42 42 42 45 48 55 56 56 61 64 65 67 63 61 57 59 65 67 69 69 67
53 52 53 51 52 54 46 48 49 44 44 48 43 39 34 32 33 36 37 36 44 49 47 54 57 62 67 68 70 66 63 62 62 65 67 70 71 68
52 51 51 49 49 49 48 43 43 34 31 34 37 37 30 31 33 33 32 37 44 44 45 51 58 65 68 68 69 69 64 62 64 68 71 73 72 71
49 48 52 49 46 40 36 30 28 29 35 36 30 25 28 28 29 31 35 36 41 46 53 53 58 61 66 68 69 67 65 63 65 67 68 74 74 73
49 52 49 46 41 37 34 31 33 30 23 21 23 24 24 25 30 33 32 39 47 45 41 43 48 47 53 65 65 67 65 57 60 64 63 73 75 69
39 36 29 26 27 24 23 16 19 20 24 24 23 21 23 24 30 32 35 38 45 49 56 61 59 60 57 59 58 54 54 54 57 60 61 71 71 67
27 25 20 17 15 15 18 21 25 30 27 23 20 20 24 27 28 33 39 43 47 48 49 63 56 61 58 57 57 59 56 56 51 56 59 64 65 66
24 21 19 18 18 20 24 30 28 25 23 23 21 19 21 24 31 36 40 42 45 42 49 56 54 56 59 59 54 50 52 58 60 59 57 60 64 65
21 17 17 18 17 20 19 23 24 25 21 19 20 21 23 27 31 33 36 39 39 40 36 48 55 58 42 45 32 44 58 68 68 65 61 61 67 68
24 16 12 12 15 19 20 24 22 21 18 18 19 22 23 26 31 34 35 38 38 44 49 47 47 55 51 61 63 65 70 63 63 64 64 58 67 69
25 16 14 16 20 20 22 21 21 20 19 20 20 20 24 28 32 34 37 40 39 43 41 40 52 53 59 66 71 69 67 73 69 68 66 64 63 64
25 20 19 19 20 18 18 18 20 21 20 20 21 22 25 28 31 33 33 34 36 38 37 37 43 44 45 54 61 62 58 63 64 60 68 63 61 62
25 25 22 18 19 19 20 20 21 19 19 18 19 19 21 24 26 30 34 36 41 42 42 39 38 39 46 46 50 56 62 56 63 59 61 59 56 55
22 22 21 19 16 12 11 10 9 8 9 10 13 16 20 23 26 28 31 36 38 42 42 40 40 42 47 48 54 53 52 54 53 51 56 57 56 54
25 22 20 17 14 12 10 7 8 10 12 13 16 19 23 27 29 29 29 29 31 32 37 38 40 47 48 48 44 46 49 44 46 52 55 54 54 49
26 23 18 16 13 10 7 9 11 12 14 17 21 24 26 27 29 30 29 29 30 31 33 41 38 37 43 50 41 37 45 54 55 52 49 52 51 52
23 18 16 15 12 10 10 12 15 18 21 25 28 30 32 34 35 37 37 38 39 39 39 36 34 34 35 44 58 56 48 48 46 47 48 46 49 45
23 20 17 15 13 11 13 17 20 23 25 28 30 32 34 36 36 38 39 40 42 42 45 41 38 46 51 51 52 45 37 44 41 45 45 45 43 43
22 18 15 13 13 16 18 22 25 27 30 31 33 34 34 37 39 39 39 40 41 43 44 44 41 40 37 35 40 41 41 43 40 38 32 28 29 21
18 16 15 17 20 23 26 27 29 30 31 32 33 35 35 36 37 38 38 39 40 41 40 42 40 35 33 31 37 39 40 40 38 35 29 31 30 28
Wind_Direction_850mb
267 268 270 275 277 279 279 283 286 278 284 289 295 302 306 298 294 286 280 269 262 257 251 250 256 256 256 259 263 271 279 282 287 284 287 292 296 301
266 268 272 276 280 282 284 283 280 280 272 285 294 300 299 290 286 283 276 267 263 253 253 254 260 263 262 262 265 273 276 280 285 282 285 289 294 300
267 270 274 275 276 279 277 278 278 275 277 284 295 295 285 287 277 275 274 270 265 257 260 262 264 261 262 264 265 270 274 280 285 287 288 291 293 297
265 266 267 273 272 276 279 280 277 277 278 287 295 285 288 283 283 283 283 274 266 265 266 265 262 260 260 259 260 265 271 278 285 289 289 290 291 295
261 262 264 268 275 280 276 279 282 281 280 282 283 289 289 292 291 291 289 281 278 278 268 267 268 265 263 261 262 266 271 276 290 290 290 289 290 294
263 262 267 273 272 276 277 281 280 277 284 289 287 287 297 300 299 296 289 288 287 281 277 276 276 271 266 262 264 267 274 276 287 290 291 291 292 292
256 260 263 265 267 265 273 270 263 269 283 276 276 286 292 294 290 287 286 287 289 289 287 283 282 278 273 271 269 268 274 280 286 290 292 292 291 291
248 254 262 266 264 262 261 262 269 272 255 261 266 267 272 280 286 288 289 298 298 299 291 289 290 289 284 277 276 276 277 283 293 293 292 292 290 292
256 260 262 262 255 265 265 249 255 258 258 256 249 256 272 284 285 287 292 292 295 293 299 296 295 293 293 286 282 287 277 288 297 297 294 290 293 296
238 248 255 255 259 261 249 241 236 238 242 240 247 260 274 286 292 292 295 298 296 296 296 295 301 300 298 294 284 285 280 290 300 301 293 292 298 296
218 228 235 234 235 242 247 242 240 242 242 246 255 273 278 278 283 291 294 298 303 304 305 301 307 307 303 299 295 289 284 289 303 305 297 297 295 290
211 223 207 222 226 242 246 248 246 243 247 252 267 271 271 278 286 291 296 297 298 308 301 304 304 309 312 303 295 294 287 291 297 302 299 295 289 290
204 207 208 208 225 234 240 244 244 244 242 244 255 268 276 283 290 295 297 295 294 291 303 302 300 302 295 298 304 310 308 309 305 305 301 295 272 286
203 204 219 227 237 240 234 238 247 251 250 256 264 272 283 293 298 302 305 304 301 302 305 300 296 301 299 301 301 308 310 311 312 311 307 303 298 293
202 200 208 224 234 238 243 246 246 256 266 274 281 288 297 303 308 310 311 314 312 312 314 308 304 311 307 306 309 313 313 310 310 310 314 312 308 303
193 194 193 204 222 231 236 243 253 258 263 276 290 301 304 310 316 316 313 313 312 314 317 319 316 313 310 305 307 307 313 308 315 317 316 315 312 307
182 179 178 184 196 200 209 218 238 263 281 292 299 307 308 306 306 307 309 311 312 315 317 318 315 310 308 309 310 314 314 313 316 317 317 317 317 317
178 180 175 172 176 180 187 213 247 270 287 299 308 310 310 310 311 311 307 308 308 311 314 312 311 315 316 316 318 316 314 314 317 317 318 316 318 318
181 179 171 172 182 192 215 241 256 275 294 306 313 318 320 318 319 319 318 315 309 309 305 307 310 312 316 314 318 316 314 317 315 314 316 313 313 315
180 184 182 186 193 207 228 257 280 296 304 310 311 310 307 308 309 308 307 305 305 303 298 300 303 302 304 302 298 297 306 307 309 308 310 307 313 312
187 191 194 201 211 232 258 274 283 290 295 297 298 301 304 307 308 306 306 306 306 305 301 297 289 293 298 298 298 304 303 301 306 308 311 309 310 317
197 201 207 223 245 260 268 275 282 288 292 295 298 301 304 305 304 304 305 307 307 304 300 299 305 308 304 298 295 301 306 305 310 308 305 293 303 306
207 219 236 252 259 264 268 273 279 284 288 292 296 299 300 301 302 304 306 306 305 304 305 310 312 307 301 301 300 304 305 309 314 315 302 300 302 305